Regional Weather Roundup
Issued by NWS Charleston, WV

Home | Current Version | Previous Version | Text Only | Print | Product List | Glossary On
Versions: 1 2 3 4 5 6 7 8 9 10 11 12 13 14 15 16 17 18 19 20 21 22 23 24 25 26 27 28
000
ASUS41 KRLX 300310
RWRRLX
West Virginia Regional Weather Roundup
National Weather Service Charleston WV
1100 PM EDT WED MAR 29 2017

Note: "fair" indicates few or no clouds below 12,000 feet with no
significant weather and/or obstructions to visibility.

WVZ003-300400-
Northern Panhandle of West Virginia

CITY           SKY/WX    TMP DP  RH WIND       PRES   REMARKS
WHEELING       CLEAR     49  29  46 NE8       30.14R
$$

WVZ009-300400-
Northwest West Virginia

CITY           SKY/WX    TMP DP  RH WIND       PRES   REMARKS
PARKERSBURG    CLEAR     51  36  56 NE6       30.13F
$$

WVZ006-300400-
Western West Virginia

CITY           SKY/WX    TMP DP  RH WIND       PRES   REMARKS
HUNTINGTON     CLEAR     51  44  77 NE6       30.08S
$$

WVZ015-300400-
West Central West Virginia

CITY           SKY/WX    TMP DP  RH WIND       PRES   REMARKS
CHARLESTON     CLEAR     51  44  77 N3        30.07F
$$

WVZ022-031-300400-
North Central West Virginia

CITY           SKY/WX    TMP DP  RH WIND       PRES   REMARKS
CLARKSBURG     CLEAR     52  33  48 E6        30.12F
MORGANTOWN     CLEAR     50  32  50 NE5       30.14F
$$

WVZ025-035-042-045-300400-
Southern West Virginia

CITY           SKY/WX    TMP DP  RH WIND       PRES   REMARKS
BECKLEY        CLEAR     46  43  89 CALM      30.10F
LOGAN            N/A     54  46  76 E6        30.06F
BLUEFIELD      CLEAR     54  44  69 E6        30.11F
LEWISBURG      CLEAR     48  42  77 CALM      30.11F
$$

WVZ047-300400-
Northern Mountains of West Virginia

CITY           SKY/WX    TMP DP  RH WIND       PRES   REMARKS
ELKINS         CLEAR     40  36  86 CALM      30.14F
$$

WVZ052-300400-
Eastern Panhandle of West Virginia

CITY           SKY/WX    TMP DP  RH WIND       PRES   REMARKS
MARTINSBURG    CLEAR     50  33  52 E5        30.19R
PETERSBURG     CLEAR     46  39  76 W7        30.17S
$$




USA.gov is the U.S. government's official web portal to all federal, state and local government web resources and services.